Haines, AK

6:02 PM AKST on November 21, 2017 (GMT -0900)
Haines

Weather History for PAHN - September, 2012

Change the Weather History Date:

Thursday, September 20, 2012

  Actual Average Record
Temperature  
Mean Temperature 50 °F -  
Max Temperature 57 °F 52 °F 67 °F (1973)
Min Temperature 46 °F 43 °F 30 °F (1978)
Degree Days  
Heating Degree Days 14    
Moisture  
Dew Point 48 °F    
Average Humidity 93    
Maximum Humidity 100    
Minimum Humidity 83    
Precipitation  
Precipitation 0.02 in - - ()
Sea Level Pressure  
Sea Level Pressure 30.19 in    
Wind  
Wind Speed 5 mph (NW)    
Max Wind Speed 12 mph    
Max Gust Speed -    
Visibility 8 miles    
Events Rain    
Averages and records for this station are not official NWS values.
T = Trace of Precipitation, MM = Missing Value Source: NWS Daily Summary

Daily Weather History Graph

Daily Weather History Graph

Search for Another Location

Airport or City:

Trip Planner

Search our weather history database for the weather conditions in past years. The results will help you decide how hot, cold, wet, or windy it might be!

Date:

Astronomy

Sep. 20, 2012 Rise Set
Actual Time 6:43 AM AKDT 7:05 PM AKDT
Civil Twilight 6:02 AM AKDT 7:46 PM AKDT
Nautical Twilight 5:13 AM AKDT 8:35 PM AKDT
Astronomical Twilight 4:19 AM AKDT 9:28 PM AKDT
Moon 1:40 PM AKDT (9/20) 8:43 PM AKDT (9/20)
Length of Visible Light 13h 43m
Length of Day
12h 22m
Waxing Crescent, 28% of the Moon is Illuminated
Sep 20
Waxing Crescent
Sep 22
First Quarter
Sep 29
Full
Oct 7
Last Quarter
Oct 15
New

Hourly Weather History & Observations

Time (AKDT) Temp. Windchill Dew Point Humidity Pressure Visibility Wind Dir Wind Speed Gust Speed Precip Events Conditions
12:54 AM 48.9 °F - 48.0 °F 97% 30.29 in 4.0 mi ESE 3.5 mph - 0.01 in Rain Light Rain
1:54 AM 48.9 °F - 48.0 °F 97% 30.28 in 3.0 mi Calm Calm - 0.00 in   Overcast
2:22 AM 48.2 °F - 48.2 °F 100% 30.26 in 3.0 mi Calm Calm - N/A   Overcast
2:43 AM 48.2 °F - 48.2 °F 100% 30.26 in 5.0 mi ENE 3.5 mph - N/A   Overcast
2:54 AM 48.9 °F - 48.0 °F 97% 30.27 in 5.0 mi Calm Calm - N/A   Overcast
3:39 AM 48.2 °F - 46.4 °F 93% 30.27 in 5.0 mi NW 6.9 mph - 0.01 in   Overcast
3:54 AM 46.9 °F - 46.0 °F 97% 30.28 in 6.0 mi WNW 6.9 mph - 0.01 in   Overcast
4:07 AM 46.4 °F 42.4 °F 46.4 °F 100% 30.27 in 5.0 mi WNW 8.1 mph - N/A   Overcast
4:29 AM 48.2 °F - 46.4 °F 93% 30.26 in 3.0 mi WNW 9.2 mph - N/A   Overcast
4:45 AM 48.2 °F - 46.4 °F 93% 30.26 in 3.0 mi WNW 9.2 mph - N/A   Overcast
4:54 AM 48.0 °F - 46.9 °F 96% 30.26 in 4.0 mi WNW 10.4 mph - N/A   Overcast
5:54 AM 46.9 °F - 46.0 °F 97% 30.25 in 10.0 mi WNW 11.5 mph - N/A   Overcast
6:54 AM 48.9 °F - 46.9 °F 93% 30.24 in 10.0 mi NW 8.1 mph - N/A   Overcast
7:54 AM 48.9 °F - 46.9 °F 93% 30.24 in 10.0 mi WNW 4.6 mph - N/A   Overcast
8:40 AM 48.2 °F - 46.4 °F 93% 30.22 in 9.0 mi WNW 10.4 mph - N/A   Overcast
8:54 AM 48.0 °F - 46.9 °F 96% 30.24 in 10.0 mi WNW 10.4 mph - N/A   Overcast
9:06 AM 48.2 °F - 46.4 °F 93% 30.23 in 10.0 mi WNW 9.2 mph - N/A   Overcast
9:54 AM 50.0 °F - 48.0 °F 93% 30.23 in 9.0 mi WNW 10.4 mph - N/A   Overcast
10:54 AM 51.1 °F - 48.0 °F 89% 30.23 in 10.0 mi WNW 4.6 mph - N/A   Overcast
11:54 AM 53.1 °F - 48.0 °F 83% 30.22 in 10.0 mi WNW 4.6 mph - N/A   Overcast
12:54 PM 54.0 °F - 50.0 °F 86% 30.20 in 10.0 mi WNW 6.9 mph - N/A   Overcast
1:54 PM 53.1 °F - 50.0 °F 89% 30.18 in 10.0 mi East 3.5 mph - N/A   Overcast
2:54 PM 54.0 °F - 52.0 °F 93% 30.16 in 10.0 mi ESE 3.5 mph - N/A   Overcast
3:54 PM 55.0 °F - 51.1 °F 86% 30.14 in 10.0 mi SE 4.6 mph - N/A   Overcast
4:20 PM 55.4 °F - 51.8 °F 88% 30.12 in 10.0 mi ESE 3.5 mph - N/A   Overcast
4:54 PM 55.0 °F - 51.1 °F 86% 30.11 in 10.0 mi Calm Calm - N/A   Overcast
5:54 PM 55.9 °F - 52.0 °F 87% 30.09 in 10.0 mi Calm Calm - N/A   Mostly Cloudy
6:54 PM 52.0 °F - 50.0 °F 93% 30.07 in 10.0 mi East 3.5 mph - N/A   Mostly Cloudy
7:54 PM 51.1 °F - 48.9 °F 92% 30.07 in 7.0 mi Calm Calm - N/A   Scattered Clouds
8:54 PM 51.1 °F - 48.9 °F 92% 30.06 in 10.0 mi Calm Calm - N/A   Mostly Cloudy
9:54 PM 52.0 °F - 50.0 °F 93% 30.05 in 10.0 mi Variable 5.8 mph - N/A   Partly Cloudy
10:54 PM 52.0 °F - 50.0 °F 93% 30.04 in 10.0 mi Calm Calm - N/A   Scattered Clouds
11:54 PM 50.0 °F - 48.9 °F 96% 30.05 in 10.0 mi Calm Calm - N/A   Overcast